192  
ASUS42 KMHX 220925  
RWRMHX  
WEATHER ROUNDUP FOR EASTERN NORTH CAROLINA  
NATIONAL WEATHER SERVICE NEWPORT/MOREHEAD CITY NC  
500 AM EDT TUE MAY 22 2018  
 
NOTE: "FAIR" INDICATES FEW OR NO CLOUDS BELOW 12,000 FEET  
WITH NO SIGNIFICANT WEATHER AND/OR S TO VISIBILITY
 
 
NCZ015>017-031-032-045>047-102-103-221000-  
NORTH COAST  
 
CITY SKY/WX TMP DP RH WIND PRES REMARKS
 
EDENTON FOG 70 70 100 CALM 30.12S VSB 1  
ELIZABETH CITY CLOUDY 70 70 100 NE3 30.11F FOG  
KITTY HAWK CLOUDY 69 69 100 CALM 30.10S  
MANTEO CLOUDY 70 70 98 CALM 30.12R  
 

 
 
NCZ045>047-081-094-103-104-221000-  
CENTRAL COAST  
 
CITY SKY/WX TMP DP RH WIND PRES REMARKS
 
FRISCO FAIR 73 71 93 W7 30.12S  
 

 
 
NCZ095-097-098-100-101-221000-  
SOUTHERN COAST  
 
CITY SKY/WX TMP DP RH WIND PRES REMARKS
 
BEAUFORT FAIR 73 72 96 SW8 30.13R  
CEDAR ISLAND NOT AVBL  
JACKSONVILLE FAIR 71 71 100 CALM 30.11S  
PINEY ISLAND NOT AVBL  
WILMINGTON FAIR 72 69 90 SW6 30.12S  
 

 
 
NCZ011>013-027>030-043-044-078>080-089-090>093-098-221000-  
COASTAL PLAIN  
 
CITY SKY/WX TMP DP RH WIND PRES REMARKS
 
AHOSKIE FOG 65 65 100 CALM 30.12S VSB 1/4  
CLINTON CLOUDY 70 70 100 CALM 30.11S  
ELIZABETHTOWN FAIR 70 69 97 SW5 30.12S  
GOLDSBORO MOCLDY 70 68 94 CALM 30.09S  
GREENVILLE FAIR 70 70 100 CALM 30.12F FOG  
HAVELOCK NOT AVBL  
KENANSVILLE FAIR 68 68 100 CALM 30.12S FOG  
KINSTON FAIR 69 69 98 CALM 30.12S  
NEW BERN FAIR 68 68 100 S3 30.13S  
RICHLANDS FAIR 70 69 97 CALM 30.12S FOG  
ROCKY MOUNT MOCLDY 68 68 100 CALM 30.11S FOG  
WASHINGTON CLOUDY 70 69 96 CALM 30.12S  
WHITEVILLE CLOUDY 70 69 97 CALM 30.12S  
 

 
 
AMZ130-135-150-152-154-156-158-170-250-252-270-ANZ085-086-088-633-658-670-221000-  
MARINE OBSERVATIONS  
 
STATION/POSITION TIME TEMP WIND PRES WAVE SWELL
 
AIR SEA DIR/SP/G HT/PER HT/PER  
(UTC) (F) (DEG/KT/KT) (MB) (FT/S) (FT/S)  
CHESAPEAKE LIGHT NOT AVBL  
64 E VA BEACH 0850 65 67 90/ 12/ 14 1020.0 4/ 8 3/ 8  
DUCK 0900 67 68 350/ 4/ 4 1019.2  
2 E DUCK 0900 68 N/A 2/ 9  
OREGON INLET 0854 73 78 220/ 8/ 10 1019.3  
13E OREGON INLT 0848 66 N/A 3/ 9 3/ 9  
HATTERAS CG 0900 73 76 250/ 7/ 10 1019.5  
DIAMOND BUOY 0910 74 74 240/ 10/ 10 1020.4  
CAPE LOOKOUT 0900 220/ 5/ 8 1020.5  
BEAUFORT LAB 0854 74 76 220/ 2/ 6 1020.4  
30 SE NEW RVR IN 0908 75 220/ 8/ 10 1020.2  
30 SE NEW RVR IN 0900 75 N/A 4/ 9 2/11  
27 SE WRIGHTSVLE 0908 74 74 260/ 4/ 8 1020.2  
5 SE WRIGHTSVLE NOT AVBL  
225 S CAPE HAT 0900 77 180/ 8/ 10 1021.1  
41 SE CHARLESTON 0900 75 190/ 6/ 8 1019.4  
 

 
 
 
CLICK HERE TO GO TO PREVIOUS BULLETINS.

The Nexlab NC Page Main Text Page